Weather History for Kendall, FL

Change the Weather History Date:

Tuesday, March 26, 2013

  Actual Average Record
Temperature  
Mean Temperature 63 °F -  
Max Temperature 73 °F 80 °F 87 °F (2005)
Min Temperature 53 °F 59 °F 45 °F (2006)
Degree Days  
Heating Degree Days 2    
Growing Degree Days 13 (Base 50)    
Moisture  
Dew Point 39 °F    
Average Humidity 44    
Maximum Humidity 62    
Minimum Humidity 26    
Precipitation  
Precipitation 0.00 in - - ()
Sea Level Pressure  
Sea Level Pressure 30.11 in    
Wind  
Wind Speed 13 mph (NNW)    
Max Wind Speed 17 mph    
Max Gust Speed 23 mph    
Visibility 10 miles    
Events      
Averages and records for this station are not official NWS values.
T = Trace of Precipitation, MM = Missing Value Source: NWS Daily Summary

Daily Weather History Graph

Daily Weather History Graph

Search for Another Location

Airport:

Trip Planner

Search our weather history database for the weather conditions in past years. The results will help you decide how hot, cold, wet, or windy it might be!

Date:

Astronomy

Mar. 26, 2013 Rise Set
Actual Time 7:19 AM EDT 7:35 PM EDT
Civil Twilight 6:56 AM EDT 7:58 PM EDT
Nautical Twilight 6:29 AM EDT 8:25 PM EDT
Astronomical Twilight 6:02 AM EDT 8:52 PM EDT
Moon 7:09 PM EDT (3/26) 6:32 AM EDT (3/26)
Length of Visible Light 13h 02m
Length of Day
12h 16m
Waxing Gibbous, 99% of the Moon is Illuminated
Mar 26
Waxing Gibbous
Mar 27
Full
Apr 3
Last Quarter
Apr 10
New
Apr 18
First Quarter

Hourly Weather History & Observations

Time (EDT) Temp. Dew Point Humidity Pressure Visibility Wind Dir Wind Speed Gust Speed Precip Events Conditions
12:53 AM 64.0 °F 41.0 °F 43% 30.03 in 10.0 mi NNW 12.7 mph - N/A   Overcast
1:53 AM 63.0 °F 39.9 °F 43% 30.03 in 10.0 mi NNW 9.2 mph - N/A   Overcast
2:53 AM 62.1 °F 37.0 °F 39% 30.03 in 10.0 mi NNW 13.8 mph - N/A   Overcast
3:53 AM 59.0 °F 37.9 °F 46% 30.03 in 10.0 mi NNW 13.8 mph - N/A   Overcast
4:53 AM 57.9 °F 41.0 °F 53% 30.04 in 10.0 mi NNW 15.0 mph - N/A   Overcast
5:53 AM 57.9 °F 43.0 °F 58% 30.04 in 10.0 mi NNW 12.7 mph - N/A   Overcast
6:53 AM 57.9 °F 44.1 °F 60% 30.06 in 10.0 mi North 15.0 mph - N/A   Overcast
7:53 AM 57.9 °F 45.0 °F 62% 30.08 in 10.0 mi North 11.5 mph - N/A   Overcast
8:53 AM 59.0 °F 46.0 °F 62% 30.11 in 10.0 mi North 17.3 mph - N/A   Mostly Cloudy
9:53 AM 60.1 °F 44.1 °F 55% 30.12 in 10.0 mi North 15.0 mph - N/A   Overcast
10:53 AM 62.1 °F 42.1 °F 48% 30.13 in 10.0 mi NNW 17.3 mph 21.9 mph N/A   Mostly Cloudy
11:53 AM 66.9 °F 43.0 °F 42% 30.13 in 10.0 mi NNW 13.8 mph 21.9 mph N/A   Partly Cloudy
12:53 PM 69.1 °F 41.0 °F 36% 30.13 in 10.0 mi NNW 15.0 mph 20.7 mph N/A   Mostly Cloudy
1:53 PM 70.0 °F 37.0 °F 30% 30.11 in 10.0 mi NW 15.0 mph 23.0 mph N/A   Clear
2:53 PM 69.1 °F 35.1 °F 29% 30.10 in 10.0 mi NNW 15.0 mph 21.9 mph N/A   Clear
3:53 PM 71.1 °F 36.0 °F 28% 30.09 in 10.0 mi NNW 13.8 mph 19.6 mph N/A   Clear
4:53 PM 71.1 °F 34.0 °F 26% 30.09 in 10.0 mi NW 16.1 mph 20.7 mph N/A   Clear
5:53 PM 69.1 °F 35.1 °F 29% 30.11 in 10.0 mi NNW 16.1 mph - N/A   Clear
6:53 PM 66.0 °F 37.0 °F 34% 30.12 in 10.0 mi NW 13.8 mph - N/A   Clear
7:53 PM 63.0 °F 39.0 °F 41% 30.13 in 10.0 mi NNW 9.2 mph - N/A   Clear
8:53 PM 61.0 °F 37.0 °F 41% 30.17 in 10.0 mi NNW 12.7 mph - N/A   Clear
9:53 PM 57.9 °F 36.0 °F 44% 30.20 in 10.0 mi NNW 15.0 mph - N/A   Clear
10:53 PM 55.0 °F 35.1 °F 47% 30.22 in 10.0 mi NNW 13.8 mph - N/A   Clear
11:53 PM 53.1 °F 36.0 °F 52% 30.23 in 10.0 mi NNW 10.4 mph - N/A   Clear